[[{"header":{"parameterUnit":"m.s-1","parameterCategory":1,"la1":30.2992,"la2":30.254,"lo1":-89.0895,"lo2":-89.0443,"dy":0.0025,"dx":0.0025,"nx":19,"ny":19,"refTime":"2026-04-08T03:00:00:Z","depth":0,"parameterNumber":2,"parameterNumberName":"U-component_of_WINDS"},"data":[0,0,0,-0.0782,-0.0783,-0.0821,-0.0821,-0.0869,-0.0869,0,0,0,0,0,0,0,0,0,0,0,-0.0767,-0.0767,-0.0782,-0.0783,-0.0821,-0.0821,-0.0869,-0.0869,0,0,0,0,0,0,0,0,0,0,0,-0.0767,-0.0767,-0.0767,-0.0783,-0.0821,-0.0821,-0.0869,-0.0841,0,0,0,0,0,0,0,0,0,0,-0.0804,-0.0786,-0.0767,-0.0767,-0.0783,-0.0821,-0.0821,-0.084,-0.0843,-0.085,0,-0.0853,0,-0.0862,-0.0872,-0.0872,0,0,0,-0.0786,-0.0783,-0.0797,-0.0767,-0.0783,-0.0821,-0.0805,-0.0841,-0.0845,-0.0854,-0.0854,-0.0856,-0.0863,-0.0872,-0.0873,-0.0901,-0.0901,0,0,-0.0784,-0.0772,-0.0794,-0.0799,-0.079,-0.0804,-0.0806,-0.0843,-0.0843,-0.0854,-0.0857,-0.0863,-0.0873,-0.0873,-0.0901,-0.0901,0,0,0,-0.0776,-0.077,-0.0783,-0.0797,-0.0804,-0.0805,-0.0807,-0.0842,-0.0847,-0.0857,-0.0864,-0.0873,-0.0873,-0.0901,-0.0901,-0.089,0,0,0,-0.0775,-0.0766,-0.0782,-0.0775,-0.0803,-0.0823,-0.0805,-0.0844,-0.0849,-0.0864,-0.0873,-0.0874,-0.0901,-0.0901,-0.089,-0.0886,0,0,0,-0.0766,-0.0765,-0.0769,-0.0775,-0.0791,-0.0822,-0.083,-0.0845,-0.0853,-0.0872,-0.0874,-0.0901,-0.0901,-0.089,-0.0887,-0.0893,0,0,0,-0.0753,-0.0756,-0.0768,-0.0775,-0.079,-0.0814,-0.0829,-0.0848,-0.0863,-0.0873,-0.0901,-0.0901,-0.0891,-0.0887,-0.0893,-0.0896,-0.0895,0,0,-0.0751,-0.0756,-0.0761,-0.0773,-0.0791,-0.0809,-0.0827,-0.0853,-0.0866,-0.089,-0.089,-0.089,-0.0887,-0.0893,-0.0895,-0.0895,0,0,0,-0.0756,-0.076,-0.0768,-0.0782,-0.0801,-0.0819,-0.0843,-0.0854,-0.0874,-0.0875,-0.0893,-0.0892,-0.0896,-0.0898,-0.0897,-0.0903,-0.0901,-0.0901,-0.0901,-0.0736,-0.0753,-0.0765,-0.0787,-0.0801,-0.0828,-0.0842,-0.0861,-0.0873,-0.0878,-0.0885,-0.0884,-0.0886,-0.0886,-0.0891,-0.0887,-0.0887,-0.0887,-0.0887,-0.0736,-0.0745,-0.0764,-0.0782,-0.0802,-0.0817,-0.0845,-0.0854,-0.0874,-0.0879,-0.0883,-0.0888,-0.0885,-0.0891,-0.0886,-0.0886,-0.0886,-0.0886,-0.0886,-0.0725,-0.0733,-0.0746,-0.077,-0.0788,-0.0813,-0.0831,-0.0848,-0.0865,-0.0869,-0.0881,-0.0881,-0.0885,-0.0873,-0.0873,-0.0873,-0.0873,-0.0873,-0.0873,-0.0709,-0.0724,-0.0737,-0.0761,-0.0775,-0.0795,-0.0824,-0.0839,-0.086,-0.0871,-0.0872,-0.0886,-0.088,-0.0879,-0.0873,-0.0873,-0.0873,-0.0873,-0.0873,-0.0705,-0.0709,-0.0729,-0.0742,-0.0775,-0.0794,-0.0816,-0.0845,-0.086,-0.087,-0.0884,-0.0877,-0.0883,-0.0883,-0.0883,-0.0878,-0.0878,-0.0878,-0.0878,-0.0697,-0.0702,-0.0728,-0.0749,-0.0773,-0.0796,-0.0822,-0.0848,-0.0874,-0.0886,-0.0889,-0.089,-0.0889,-0.0896,-0.0897,-0.0897,-0.0895,-0.0895,-0.0895,-0.0696,-0.0705,-0.0722,-0.0747,-0.0775,-0.0799,-0.0826,-0.0853,-0.0884,-0.0897,-0.0896,-0.0895,-0.0896,-0.0895,-0.0907,-0.0907,-0.0907,0,0]},{"header":{"parameterUnit":"m.s-1","parameterCategory":1,"la1":30.2992,"la2":30.254,"lo1":-89.0895,"lo2":-89.0443,"dy":0.0025,"dx":0.0025,"nx":19,"ny":19,"refTime":"2026-04-08T03:00:00:Z","depth":0,"parameterNumber":3,"parameterNumberName":"V-component_of_WINDS"},"data":[0,0,0,1.7838,1.7837,1.7776,1.7776,1.7703,1.7703,0,0,0,0,0,0,0,0,0,0,0,1.7862,1.7862,1.7838,1.7837,1.7776,1.7776,1.7704,1.7703,0,0,0,0,0,0,0,0,0,0,0,1.7862,1.7862,1.7861,1.7837,1.7776,1.7776,1.7704,1.7747,0,0,0,0,0,0,0,0,0,0,1.7805,1.7833,1.7862,1.7861,1.7837,1.7776,1.7776,1.7749,1.7744,1.7734,0,1.7728,0,1.7715,1.7699,1.7698,0,0,0,1.7832,1.7837,1.7816,1.7861,1.7836,1.7777,1.7802,1.7746,1.7741,1.7728,1.7727,1.7724,1.7714,1.7698,1.7698,1.7659,1.7659,0,0,1.7836,1.7853,1.782,1.7813,1.7825,1.7804,1.7801,1.7743,1.7743,1.7727,1.7723,1.7712,1.7698,1.7697,1.7659,1.7659,0,0,0,1.7849,1.7856,1.7836,1.7816,1.7805,1.7803,1.7798,1.7745,1.7737,1.7722,1.7712,1.7697,1.7697,1.7659,1.7659,1.7679,0,0,0,1.785,1.7864,1.7838,1.7848,1.7806,1.7775,1.7802,1.7741,1.7734,1.7712,1.7697,1.7696,1.7659,1.7659,1.7678,1.7685,0,0,0,1.7864,1.7865,1.7858,1.7849,1.7824,1.7775,1.7764,1.7739,1.7728,1.7698,1.7696,1.7659,1.7659,1.7678,1.7684,1.768,0,0,0,1.7883,1.7876,1.7859,1.7847,1.7825,1.7789,1.7764,1.7736,1.7713,1.7697,1.7659,1.7659,1.7677,1.7683,1.7679,1.7679,1.7681,0,0,1.7884,1.7877,1.7869,1.7851,1.7824,1.7797,1.7771,1.7732,1.7711,1.7677,1.7676,1.7678,1.7684,1.768,1.7687,1.7689,0,0,0,1.7875,1.7869,1.7858,1.7838,1.7809,1.7784,1.7747,1.7732,1.7703,1.7698,1.7675,1.7678,1.7675,1.7674,1.7675,1.7671,1.766,1.766,1.766,1.7902,1.7878,1.7862,1.783,1.7811,1.7773,1.7754,1.7727,1.7708,1.7703,1.7692,1.77,1.77,1.7701,1.7696,1.7691,1.7691,1.7691,1.7691,1.7901,1.7888,1.7863,1.7839,1.7813,1.7791,1.7754,1.7741,1.7716,1.7706,1.7702,1.7693,1.7703,1.7698,1.7692,1.7692,1.7692,1.7692,1.7692,1.7915,1.7905,1.7888,1.7856,1.7834,1.7801,1.7778,1.7755,1.7732,1.7728,1.7714,1.7714,1.771,1.7724,1.7724,1.7724,1.7724,1.7724,1.7724,1.7936,1.7917,1.7902,1.7871,1.7854,1.7829,1.7791,1.7774,1.7748,1.7732,1.7732,1.7712,1.7709,1.7709,1.7724,1.7724,1.7724,1.7724,1.7724,1.7943,1.7938,1.7915,1.7898,1.7859,1.7838,1.7809,1.7775,1.7757,1.7746,1.7727,1.7729,1.7719,1.7718,1.7717,1.7733,1.7733,1.7733,1.7733,1.7955,1.7948,1.7919,1.7894,1.7867,1.7838,1.7811,1.778,1.7748,1.7735,1.7729,1.7726,1.7726,1.7716,1.7715,1.7714,1.7729,1.7729,1.7729,1.7957,1.7947,1.7929,1.7899,1.7866,1.7838,1.7811,1.7782,1.7744,1.7728,1.7724,1.7724,1.7719,1.7719,1.7702,1.7701,1.7698,0,0]}]]